Weather History for KSPI - April, 2014

Change the Weather History Date:

Friday, April 4, 2014

  Actual Average Record
Temperature  
Mean Temperature 50 °F 49 °F  
Max Temperature 61 °F 60 °F 86 °F (1929)
Min Temperature 39 °F 38 °F 22 °F (1975)
Degree Days  
Heating Degree Days 15 16  
Month to date heating degree days 57 66  
Since 1 July heating degree days 5859 5048  
Cooling Degree Days 0 0  
Month to date cooling degree days 0 0  
Year to date cooling degree days 0 2  
Moisture  
Dew Point 37 °F    
Average Humidity 72    
Maximum Humidity 86    
Minimum Humidity 57    
Precipitation  
Precipitation T in 0.10 in 2.44 in (1892)
Month to date precipitation 2.11 0.41  
Year to date precipitation 9.33 6.67  
Snow  
Snow 0.00 in 0.00 in 5.20 in (1920)
Month to date snowfall 0.0 0.1  
Since 1 July snowfall 45.6 20.7  
Snow Depth 0.00 in    
Sea Level Pressure  
Sea Level Pressure 29.78 in    
Wind  
Wind Speed 19 mph (West)    
Max Wind Speed 35 mph    
Max Gust Speed 43 mph    
Visibility 10 miles    
Events Rain    
T = Trace of Precipitation, MM = Missing Value Source: NWS Daily Summary

Daily Weather History Graph

Daily Weather History Graph

Search for Another Location

Airport or City:

Trip Planner

Search our weather history database for the weather conditions in past years. The results will help you decide how hot, cold, wet, or windy it might be!

Date:

Astronomy

Apr. 04, 2014 Rise Set
Actual Time 6:38 AM CDT 7:25 PM CDT
Civil Twilight 6:10 AM CDT 7:53 PM CDT
Nautical Twilight 5:38 AM CDT 8:25 PM CDT
Astronomical Twilight 5:04 AM CDT 8:59 PM CDT
Moon 9:55 AM CDT (4/4) No Moon Set
Length of Visible Light 13h 42m
Length of Day
12h 47m
Waxing Crescent, 25% of the Moon is Illuminated
Apr 4
Waxing Crescent
Apr 7
First Quarter
Apr 15
Full
Apr 22
Last Quarter
Apr 29
New

Hourly Weather History & Observations

Time (CDT) Temp. Windchill Dew Point Humidity Pressure Visibility Wind Dir Wind Speed Gust Speed Precip Events Conditions
12:52 AM 57.9 °F - 53.1 °F 84% 29.59 in 10.0 mi South 11.5 mph - N/A   Clear
1:52 AM 57.2 °F - 53.6 °F 88% 29.57 in 10.0 mi South 13.8 mph - N/A   Mostly Cloudy
2:52 AM 55.9 °F - 52.0 °F 87% 29.53 in 10.0 mi SSW 8.1 mph - N/A   Clear
3:52 AM 55.9 °F - 52.0 °F 87% 29.52 in 10.0 mi SSW 10.4 mph - N/A   Clear
4:18 AM 55.9 °F - 52.0 °F 87% 29.53 in 10.0 mi SW 12.7 mph 20.7 mph N/A   Mostly Cloudy
4:42 AM 54.0 °F - 50.0 °F 86% 29.55 in 10.0 mi West 32.2 mph 42.6 mph N/A   Overcast
4:52 AM 53.1 °F - 48.0 °F 83% 29.56 in 9.0 mi West 26.5 mph 34.5 mph N/A   Overcast
5:16 AM 50.0 °F - 44.1 °F 80% 29.59 in 10.0 mi West 29.9 mph 38.0 mph N/A   Overcast
5:41 AM 48.0 °F - 42.1 °F 80% 29.61 in 10.0 mi West 28.8 mph 36.8 mph N/A   Overcast
5:52 AM 46.9 °F - 41.0 °F 80% 29.62 in 10.0 mi West 24.2 mph 35.7 mph N/A   Overcast
6:52 AM 44.1 °F 34.8 °F 36.0 °F 73% 29.66 in 10.0 mi West 25.3 mph 36.8 mph N/A   Mostly Cloudy
6:59 AM 44.1 °F 35.0 °F 36.0 °F 73% 29.66 in 10.0 mi West 24.2 mph 36.8 mph N/A   Overcast
7:52 AM 42.1 °F 31.9 °F 35.1 °F 76% 29.70 in 10.0 mi West 26.5 mph 34.5 mph 0.00 in Rain Light Rain
8:52 AM 41.0 °F 31.1 °F 33.1 °F 73% 29.73 in 10.0 mi West 23.0 mph 31.1 mph 0.00 in   Overcast
9:52 AM 39.9 °F 29.2 °F 30.9 °F 70% 29.75 in 10.0 mi West 25.3 mph 40.3 mph 0.00 in   Overcast
10:52 AM 39.0 °F 28.0 °F 30.0 °F 70% 29.78 in 10.0 mi West 25.3 mph 39.1 mph N/A   Overcast
11:52 AM 41.0 °F 30.2 °F 30.9 °F 67% 29.80 in 10.0 mi West 27.6 mph 34.5 mph N/A   Overcast
12:45 PM 42.1 °F 31.7 °F 30.0 °F 62% 29.83 in 10.0 mi West 27.6 mph 35.7 mph N/A   Overcast
12:52 PM 42.1 °F 31.9 °F 30.0 °F 62% 29.84 in 10.0 mi WNW 26.5 mph 39.1 mph N/A   Overcast
1:00 PM 42.1 °F 32.6 °F 30.0 °F 62% 29.83 in 10.0 mi West 23.0 mph 36.8 mph N/A   Overcast
1:52 PM 42.1 °F 32.6 °F 28.9 °F 60% 29.87 in 10.0 mi West 23.0 mph 33.4 mph N/A   Overcast
2:52 PM 43.0 °F 33.1 °F 28.9 °F 58% 29.89 in 10.0 mi West 26.5 mph 38.0 mph N/A   Overcast
3:52 PM 44.1 °F 35.7 °F 30.9 °F 60% 29.91 in 10.0 mi West 20.7 mph 32.2 mph N/A   Overcast
4:52 PM 43.0 °F 33.5 °F 28.9 °F 58% 29.94 in 10.0 mi WNW 24.2 mph 39.1 mph N/A   Overcast
5:52 PM 44.1 °F 36.5 °F 30.0 °F 58% 29.98 in 10.0 mi WNW 17.3 mph 29.9 mph N/A   Overcast
6:52 PM 43.0 °F 35.7 °F 30.0 °F 60% 30.01 in 10.0 mi West 15.0 mph - N/A   Overcast
7:52 PM 42.1 °F 34.9 °F 30.0 °F 62% 30.04 in 10.0 mi West 13.8 mph - N/A   Overcast
8:52 PM 42.1 °F 35.7 °F 30.9 °F 65% 30.07 in 10.0 mi West 11.5 mph - N/A   Overcast
9:52 PM 42.1 °F 36.1 °F 30.9 °F 65% 30.10 in 10.0 mi WNW 10.4 mph - N/A   Overcast
10:52 PM 42.1 °F 36.1 °F 30.0 °F 62% 30.12 in 10.0 mi WNW 10.4 mph - N/A   Overcast
11:52 PM 41.0 °F 34.3 °F 28.9 °F 62% 30.13 in 10.0 mi NW 11.5 mph - N/A   Overcast